TimeCDT,TemperatureF,Dew PointF,Humidity,Sea Level PressureIn,VisibilityMPH,Wind Direction,Wind SpeedMPH,Gust SpeedMPH,PrecipitationIn,Events,Conditions,WindDirDegrees,DateUTC
12:53 AM,46.9,37.9,71,29.81,8.0,WSW,13.8,-,N/A,,Overcast,250,2013-03-31 05:53:00
1:30 AM,46.4,39.2,76,29.78,5.0,WSW,15.0,-,N/A,,Haze,250,2013-03-31 06:30:00
1:53 AM,45.0,41.0,86,29.79,4.0,West,11.5,-,N/A,,Overcast,260,2013-03-31 06:53:00
2:01 AM,44.6,41.0,87,29.78,3.0,WSW,9.2,-,N/A,,Overcast,250,2013-03-31 07:01:00
2:09 AM,44.6,41.0,87,29.78,2.5,West,10.4,-,N/A,,Overcast,260,2013-03-31 07:09:00
2:16 AM,44.6,41.0,87,29.77,2.0,WSW,11.5,-,N/A,,Overcast,250,2013-03-31 07:16:00
2:50 AM,44.6,41.0,87,29.76,3.0,West,8.1,-,N/A,,Overcast,260,2013-03-31 07:50:00
2:53 AM,44.1,41.0,89,29.77,3.0,West,9.2,-,N/A,,Overcast,260,2013-03-31 07:53:00
3:53 AM,44.1,39.9,85,29.76,4.0,West,9.2,-,N/A,,Overcast,280,2013-03-31 08:53:00
4:02 AM,44.6,39.2,81,29.75,4.0,West,10.4,-,N/A,,Overcast,280,2013-03-31 09:02:00
4:42 AM,42.8,39.2,87,29.75,5.0,West,8.1,-,N/A,,Overcast,280,2013-03-31 09:42:00
4:53 AM,43.0,39.0,86,29.76,5.0,WNW,10.4,-,N/A,,Overcast,290,2013-03-31 09:53:00
5:06 AM,41.0,37.4,87,29.75,5.0,West,9.2,-,N/A,,Scattered Clouds,280,2013-03-31 10:06:00
5:53 AM,39.0,36.0,89,29.76,5.0,West,5.8,-,N/A,,Scattered Clouds,280,2013-03-31 10:53:00
6:03 AM,39.2,35.6,87,29.75,6.0,WNW,6.9,-,N/A,,Mostly Cloudy,290,2013-03-31 11:03:00
6:53 AM,39.0,35.1,86,29.78,4.0,WNW,9.2,-,N/A,,Overcast,300,2013-03-31 11:53:00
7:53 AM,39.0,36.0,89,29.77,3.0,WNW,10.4,-,N/A,,Overcast,290,2013-03-31 12:53:00
8:53 AM,39.9,36.0,86,29.76,4.0,West,11.5,-,N/A,,Overcast,270,2013-03-31 13:53:00
9:53 AM,42.1,37.0,82,29.76,3.0,West,16.1,-,N/A,,Haze,260,2013-03-31 14:53:00
10:06 AM,42.8,37.4,81,29.74,4.0,West,17.3,-,N/A,,Haze,260,2013-03-31 15:06:00
10:30 AM,44.6,37.4,76,29.73,5.0,West,15.0,-,N/A,,Haze,260,2013-03-31 15:30:00
10:53 AM,46.9,39.0,74,29.74,6.0,WSW,18.4,-,N/A,,Haze,250,2013-03-31 15:53:00
11:53 AM,51.1,39.0,63,29.73,10.0,West,17.3,26.5,N/A,,Clear,270,2013-03-31 16:53:00
12:53 PM,53.1,39.0,59,29.71,10.0,West,18.4,-,N/A,,Mostly Cloudy,260,2013-03-31 17:53:00
1:53 PM,53.1,36.0,52,29.70,10.0,West,19.6,-,N/A,,Mostly Cloudy,280,2013-03-31 18:53:00
2:53 PM,52.0,30.0,43,29.69,10.0,WNW,20.7,32.2,N/A,,Scattered Clouds,290,2013-03-31 19:53:00
3:53 PM,51.1,33.1,50,29.71,10.0,West,19.6,29.9,N/A,,Scattered Clouds,280,2013-03-31 20:53:00
4:53 PM,44.1,32.0,63,29.75,10.0,WNW,18.4,31.1,N/A,,Mostly Cloudy,300,2013-03-31 21:53:00
5:53 PM,42.1,28.0,58,29.78,10.0,WNW,21.9,28.8,N/A,,Mostly Cloudy,290,2013-03-31 22:53:00
7:53 PM,37.9,26.1,62,29.81,10.0,West,10.4,-,N/A,,Clear,280,2013-04-01 00:53:00
8:53 PM,37.0,28.0,70,29.85,9.0,NW,13.8,24.2,N/A,,Overcast,310,2013-04-01 01:53:00
9:53 PM,36.0,28.0,73,29.87,10.0,WNW,10.4,-,0.00,,Overcast,290,2013-04-01 02:53:00
10:53 PM,35.1,26.1,70,29.88,10.0,WNW,9.2,-,N/A,,Overcast,300,2013-04-01 03:53:00
11:53 PM,34.0,23.0,64,29.89,10.0,NW,10.4,-,N/A,,Clear,310,2013-04-01 04:53:00